Weather History for Plattsburgh, NY

Change the Weather History Date:

Wednesday, June 5, 2013

  Actual Average Record
Temperature  
Mean Temperature 56 °F 62 °F  
Max Temperature 65 °F 73 °F 90 °F (1959)
Min Temperature 47 °F 51 °F 38 °F (1993)
Degree Days  
Heating Degree Days 10    
Cooling Degree Days 0 1  
Month to date cooling degree days 20 5  
Year to date cooling degree days 40 13  
Since 1 June cooling degree days 20 5  
Growing Degree Days 5 (Base 50)    
Moisture  
Dew Point 43 °F    
Average Humidity 65    
Maximum Humidity 86    
Minimum Humidity 43    
Precipitation  
Precipitation 0.00 in - 0.57 in (1972)
Month to date precipitation 0.51  
Year to date precipitation 9.70  
Sea Level Pressure  
Sea Level Pressure 30.17 in    
Wind  
Wind Speed 5 mph (NNE)    
Max Wind Speed 14 mph    
Max Gust Speed 16 mph    
Visibility 10 miles    
Events      
T = Trace of Precipitation, MM = Missing Value Source: NWS Daily Summary

Daily Weather History Graph

Daily Weather History Graph

Search for Another Location

Airport:

Trip Planner

Search our weather history database for the weather conditions in past years. The results will help you decide how hot, cold, wet, or windy it might be!

Date:

Astronomy

Jun. 05, 2013 Rise Set
Actual Time 5:09 AM EDT 8:35 PM EDT
Civil Twilight 4:33 AM EDT 9:11 PM EDT
Nautical Twilight 3:45 AM EDT 9:59 PM EDT
Astronomical Twilight 2:45 AM EDT 11:00 PM EDT
Moon 3:18 AM EDT (6/5) 5:54 PM EDT (6/5)
Length of Visible Light 16h 38m
Length of Day
15h 25m
Waning Crescent, 8% of the Moon is Illuminated
Jun 5
Waning Crescent
Jun 8
New
Jun 16
First Quarter
Jun 23
Full
Jun 30
Last Quarter

Hourly Weather History & Observations

Time (EDT) Temp. Dew Point Humidity Pressure Visibility Wind Dir Wind Speed Gust Speed Precip Events Conditions
12:53 AM 54.0 °F 46.0 °F 75% 30.12 in 10.0 mi West 3.5 mph - N/A   Overcast
1:53 AM 51.1 °F 45.0 °F 80% 30.12 in 10.0 mi NNE 3.5 mph - N/A   Clear
2:53 AM 50.0 °F 44.1 °F 80% 30.14 in 10.0 mi Calm Calm - N/A   Clear
3:53 AM 46.9 °F 43.0 °F 86% 30.15 in 10.0 mi West 3.5 mph - N/A   Clear
4:53 AM 46.9 °F 42.1 °F 83% 30.17 in 10.0 mi WNW 3.5 mph - N/A   Clear
5:53 AM 48.0 °F 41.0 °F 77% 30.19 in 10.0 mi WNW 5.8 mph - N/A   Clear
6:53 AM 53.1 °F 43.0 °F 69% 30.20 in 10.0 mi Calm Calm - N/A   Clear
7:53 AM 57.9 °F 43.0 °F 58% 30.21 in 10.0 mi Calm Calm - N/A   Clear
8:53 AM 57.9 °F 43.0 °F 58% 30.22 in 10.0 mi East 6.9 mph - N/A   Clear
9:53 AM 59.0 °F 43.0 °F 55% 30.22 in 10.0 mi ENE 8.1 mph - N/A   Clear
10:53 AM 61.0 °F 39.9 °F 46% 30.21 in 10.0 mi East 6.9 mph - N/A   Clear
11:53 AM 62.1 °F 44.1 °F 52% 30.20 in 10.0 mi Variable 6.9 mph - N/A   Clear
12:53 PM 63.0 °F 45.0 °F 52% 30.19 in 10.0 mi East 10.4 mph - N/A   Clear
1:53 PM 64.0 °F 46.0 °F 52% 30.17 in 10.0 mi ESE 6.9 mph - N/A   Clear
2:53 PM 64.9 °F 46.0 °F 50% 30.16 in 10.0 mi East 6.9 mph - N/A   Clear
3:53 PM 64.9 °F 44.1 °F 47% 30.13 in 10.0 mi NE 5.8 mph - N/A   Clear
4:53 PM 64.0 °F 42.1 °F 45% 30.13 in 10.0 mi NNE 4.6 mph - N/A   Clear
5:53 PM 63.0 °F 44.1 °F 50% 30.15 in 10.0 mi NNE 6.9 mph - N/A   Clear
6:53 PM 63.0 °F 39.0 °F 41% 30.15 in 10.0 mi North 9.2 mph - N/A   Clear
7:53 PM 61.0 °F 39.9 °F 46% 30.14 in 10.0 mi NNE 5.8 mph - N/A   Clear
8:53 PM 60.1 °F 41.0 °F 49% 30.16 in 10.0 mi North 6.9 mph - N/A   Clear
9:53 PM 57.9 °F 42.1 °F 56% 30.17 in 10.0 mi NNW 3.5 mph - N/A   Clear
10:53 PM 55.0 °F 46.0 °F 72% 30.17 in 10.0 mi Calm Calm - N/A   Clear
11:53 PM 55.0 °F 46.0 °F 72% 30.16 in 10.0 mi Calm Calm - N/A   Clear